Location: ??????
(41.3794°N, 22.5014°E)
Time: 07:49:55
(UTC+00:00)

Cosmos 2237 Rocket - Pass Details

Date: 30 November 2020
Orbit: 833 x 851 km, 71.0° (Epoch: 17 January)

Event Time Altitude Azimuth Distance (km) Brightness Sun altitude
Rises 16:12:59 0° 248° (WSW) 3,373 7.4 -13.1°
Reaches altitude 10° 16:16:09 10° 266° (W) 2,445 5.9 -13.7°
Maximum altitude 16:20:02 19° 310° (NW) 1,903 4.5 -14.4°
Drops below altitude 10° 16:23:57 10° 354° (N) 2,460 4.5 -15.1°
Sets 16:27:10 0° 13° (NNE) 3,402 5.1 -15.7°
